Terminal Aerodrome Forecast
Issued by NWS Mt. Holly, NJ

Home | Current Version | Previous Version | Text Only | Print | Product List | Glossary On
Versions: 1 2 3 4 5 6 7 8 9 10 11 12 13 14 15 16 17 18 19 20 21 22 23 24 25 26 27 28 29 30 31 32 33 34 35 36 37 38 39 40 41 42 43 44 45 46 47 48 49 50
000
FTAK31 PANC 231903 AAA
TAFABE
TAF AMD
PABE 231903Z 2319/2418 24009KT P6SM -RA SCT025 OVC040
      TEMPO 2319/2322 BKN025
     FM232200 21016KT 6SM -RA OVC015
     FM240600 25007KT P6SM VCSH OVC007
     FM241200 29009KT 3SM BR OVC004=

USA.gov is the U.S. government's official web portal to all federal, state and local government web resources and services.